Eagle Creek, IN

10:16 PM EST on January 17, 2018 (GMT -0500)
Eagle Creek

Weather History for KEYE - January, 2013

Change the Weather History Date:

Tuesday, January 22, 2013

  Actual Average Record
Temperature  
Mean Temperature 11 °F 28 °F  
Max Temperature 17 °F 35 °F 62 °F (2017)
Min Temperature 4 °F 21 °F -4 °F (2011)
Degree Days  
Heating Degree Days 54 37  
Month to date heating degree days 784 814  
Since 1 July heating degree days 2849 2870  
Cooling Degree Days 0 0  
Month to date cooling degree days 0 0  
Year to date cooling degree days 0 0  
Moisture  
Dew Point -3 °F    
Average Humidity 61    
Maximum Humidity 79    
Minimum Humidity 42    
Precipitation  
Precipitation 0.00 in 0.03 in 1.71 in (1999)
Month to date precipitation 4.11 1.88  
Year to date precipitation 4.11 1.88  
Sea Level Pressure  
Sea Level Pressure 30.36 in    
Wind  
Wind Speed 11 mph (WNW)    
Max Wind Speed 20 mph    
Max Gust Speed 25 mph    
Visibility 10 miles    
Events      
T = Trace of Precipitation, MM = Missing Value Source: NWS Daily Summary

Daily Weather History Graph

Daily Weather History Graph

Search for Another Location

Airport or City:

Trip Planner

Search our weather history database for the weather conditions in past years. The results will help you decide how hot, cold, wet, or windy it might be!

Date:

Astronomy

Jan. 22, 2013 Rise Set
Actual Time 8:00 AM EST 5:53 PM EST
Civil Twilight 7:31 AM EST 6:22 PM EST
Nautical Twilight 6:58 AM EST 6:55 PM EST
Astronomical Twilight 6:26 AM EST 7:27 PM EST
Moon 2:15 PM EST (1/22) 4:21 AM EST (1/22)
Length of Visible Light 10h 50m
Length of Day
9h 52m
Waxing Gibbous, 82% of the Moon is Illuminated
Jan 22
Waxing Gibbous
Jan 26
Full
Feb 3
Last Quarter
Feb 10
New
Feb 17
First Quarter

Hourly Weather History & Observations

Time (EST) Temp. Windchill Dew Point Humidity Pressure Visibility Wind Dir Wind Speed Gust Speed Precip Events Conditions
12:53 AM 8.1 °F -9.0 °F -4.0 °F 58% 30.32 in 10.0 mi WNW 15.0 mph 23.0 mph N/A   Clear
1:53 AM 7.0 °F -8.3 °F -2.0 °F 67% 30.32 in 10.0 mi NW 11.5 mph - N/A   Partly Cloudy
2:53 AM 6.1 °F -12.2 °F -2.9 °F 67% 30.33 in 10.0 mi NW 16.1 mph 21.9 mph N/A   Clear
3:53 AM 6.1 °F -7.8 °F -2.9 °F 67% 30.34 in 10.0 mi WNW 9.2 mph - N/A   Partly Cloudy
4:23 AM 6.8 °F -7.8 °F -2.2 °F 67% 30.29 in 10.0 mi West 10.4 mph - N/A   Mostly Cloudy
4:36 AM 6.8 °F -10.0 °F -2.2 °F 67% 30.29 in 10.0 mi WNW 13.8 mph - N/A   Scattered Clouds
4:53 AM 5.0 °F -10.8 °F -2.9 °F 70% 30.34 in 10.0 mi WNW 11.5 mph 21.9 mph N/A   Clear
5:53 AM 5.0 °F -12.3 °F -4.0 °F 66% 30.35 in 10.0 mi WNW 13.8 mph - N/A   Clear
6:53 AM 3.9 °F -12.2 °F -4.0 °F 70% 30.38 in 10.0 mi NW 11.5 mph - N/A   Clear
7:23 AM 3.2 °F -13.9 °F -2.2 °F 78% 30.33 in 10.0 mi NW 12.7 mph - N/A   Mostly Cloudy
7:50 AM 3.2 °F -13.9 °F -4.0 °F 72% 30.33 in 10.0 mi NW 12.7 mph - N/A   Scattered Clouds
7:53 AM 3.9 °F -11.3 °F -4.0 °F 70% 30.39 in 10.0 mi WNW 10.4 mph - N/A   Mostly Cloudy
8:44 AM 3.2 °F -12.2 °F -2.2 °F 78% 30.35 in 10.0 mi WNW 10.4 mph - N/A   Scattered Clouds
8:53 AM 3.9 °F -10.4 °F -2.9 °F 73% 30.41 in 10.0 mi NW 9.2 mph - N/A   Scattered Clouds
9:16 AM 5.0 °F -10.8 °F -2.2 °F 72% 30.35 in 10.0 mi WNW 11.5 mph - N/A   Mostly Cloudy
9:53 AM 7.0 °F -8.3 °F -2.0 °F 67% 30.42 in 10.0 mi WNW 11.5 mph - N/A   Scattered Clouds
10:53 AM 8.1 °F -5.3 °F -2.9 °F 61% 30.43 in 10.0 mi WNW 9.2 mph - N/A   Clear
11:53 AM 10.9 °F -3.4 °F -2.9 °F 54% 30.42 in 10.0 mi WNW 11.5 mph - N/A   Clear
12:53 PM 12.9 °F 0.7 °F -2.9 °F 49% 30.39 in 10.0 mi West 9.2 mph 16.1 mph N/A   Clear
1:53 PM 15.1 °F 2.5 °F -2.9 °F 45% 30.37 in 10.0 mi WNW 10.4 mph 18.4 mph N/A   Clear
2:53 PM 15.1 °F 1.8 °F -4.0 °F 43% 30.37 in 10.0 mi West 11.5 mph 20.7 mph N/A   Clear
3:53 PM 16.0 °F 1.7 °F -2.9 °F 43% 30.37 in 10.0 mi WNW 13.8 mph 21.9 mph N/A   Clear
4:53 PM 15.1 °F 4.2 °F -2.0 °F 47% 30.37 in 10.0 mi West 8.1 mph - N/A   Partly Cloudy
5:53 PM 14.0 °F 0.5 °F -0.9 °F 52% 30.37 in 10.0 mi West 11.5 mph - N/A   Clear
6:53 PM 14.0 °F 3.9 °F -2.9 °F 47% 30.37 in 10.0 mi West 6.9 mph - N/A   Clear
7:53 PM 14.0 °F 3.9 °F -2.0 °F 49% 30.38 in 10.0 mi West 6.9 mph - N/A   Partly Cloudy
8:53 PM 14.0 °F 3.9 °F -2.9 °F 47% 30.36 in 10.0 mi West 6.9 mph - N/A   Overcast
9:53 PM 14.0 °F 2.9 °F -2.0 °F 49% 30.36 in 10.0 mi West 8.1 mph - N/A   Overcast
10:53 PM 14.0 °F 0.5 °F -2.0 °F 49% 30.38 in 10.0 mi WNW 11.5 mph - N/A   Overcast
11:53 PM 14.0 °F 2.0 °F -2.0 °F 49% 30.38 in 10.0 mi West 9.2 mph - N/A   Overcast